Theta_e
328 324 323 326 323 322 321 323 328 328 328 327 329 330 333 328 333 334 336 336 340 340
326 327 326 329 331 324 327 324 326 326 325 325 324 326 331 325 330 332 331 335 340 337
326 327 327 328 326 326 327 326 324 323 324 323 323 324 327 327 324 327 328 327 331 336
324 325 326 325 325 325 325 324 322 321 320 320 320 322 323 324 324 326 327 328 326 328
325 325 325 325 324 324 322 322 320 319 318 317 317 320 319 319 319 322 321 323 325 324
324 324 323 322 322 321 320 318 317 315 314 313 313 314 316 317 317 317 319 322 322 323
323 321 320 320 319 318 316 314 313 313 312 312 312 312 312 314 313 313 313 317 320 320
321 319 317 317 316 315 314 313 313 312 312 312 312 310 310 310 308 307 308 312 314 318
316 315 315 315 314 313 312 312 312 311 311 311 311 301 302 303 307 305 305 308 312 316
313 312 312 311 310 310 311 311 310 310 310 310 311 300 299 300 305 305 305 307 310 311
311 309 309 309 309 309 309 308 307 307 308 309 309 301 299 299 305 306 308 309 310 312
308 307 307 307 308 308 305 304 304 305 306 306 305 301 299 299 304 305 307 308 310 310
306 306 306 307 307 304 302 301 302 302 303 303 303 301 298 298 302 302 303 307 308 305
306 305 305 305 305 303 301 301 300 299 301 303 303 304 297 296 301 300 300 301 303 305
Wind_Speed
4 6 8 7 6 7 7 7 9 9 9 10 11 10 7 7 4 9 7 6 8 7
7 8 7 7 8 7 7 7 8 9 9 10 11 11 11 4 8 6 8 10 9 5
5 5 6 5 6 6 7 8 9 9 9 9 9 11 10 8 6 9 8 8 11 8
4 4 5 5 6 8 8 9 10 10 11 11 10 8 9 10 8 6 8 8 9 11
3 3 4 5 6 8 9 10 11 11 12 11 11 10 8 9 11 8 8 10 9 10
1 2 3 5 6 8 10 11 12 13 12 12 11 12 11 10 8 7 10 10 9 10
1 3 4 6 7 9 10 11 12 12 12 12 12 10 10 8 9 10 10 12 10 10
1 4 5 7 8 9 10 10 12 12 12 12 11 6 6 7 8 11 12 11 11 9
4 6 7 8 9 10 10 11 11 12 13 12 10 12 8 6 10 11 12 11 10 10
5 7 8 9 10 10 11 12 13 13 13 13 12 8 5 1 10 12 11 12 10 10
7 8 9 9 9 9 10 12 12 13 13 13 11 7 3 4 13 12 12 12 12 9
8 9 10 10 10 8 9 11 12 12 13 13 13 5 3 8 13 12 12 11 11 11
8 9 10 10 10 7 8 11 10 13 13 13 14 12 2 4 9 12 10 11 11 7
10 10 10 10 9 9 10 9 10 11 11 11 14 12 6 5 8 9 10 10 9 3
Wind_Direction
82 72 90 56 41 42 31 33 18 17 10 10 357 357 358 351 352 323 315 303 310 294
82 59 54 44 4 26 31 15 15 15 8 1 359 347 341 339 335 319 328 315 275 304
86 57 38 38 35 27 14 10 1 360 358 358 352 348 342 333 337 335 309 320 337 317
81 62 48 30 16 9 358 356 348 345 338 335 337 347 333 323 293 296 319 318 313 324
78 56 38 17 9 356 347 339 335 331 328 323 321 319 315 312 317 310 328 327 322 312
28 20 17 358 351 338 333 332 328 326 323 321 321 313 312 310 316 329 326 306 313 314
299 347 346 340 336 334 332 326 322 321 317 316 313 315 304 340 341 325 316 309 303 307
289 309 321 323 324 323 321 319 317 317 315 313 312 323 9 335 315 307 299 292 295 290
304 313 320 323 320 319 316 316 314 309 308 306 300 115 95 2 313 301 290 285 286 289
307 313 316 319 318 318 321 315 311 308 304 306 306 120 120 97 310 303 286 280 273 269
314 317 316 311 312 314 325 322 310 308 302 301 300 96 33 310 304 296 286 279 275 269
324 315 312 309 309 328 314 312 307 299 304 313 308 332 353 323 309 302 301 295 286 282
323 316 314 317 306 339 300 295 299 305 307 302 299 301 260 288 305 307 308 308 306 307
341 334 312 311 330 309 297 292 291 287 290 288 283 289 179 223 310 310 313 308 300 328